Location: Stoke Bliss
(52.2667°N, 2.5167°W)
Time: 13:30:59
(UTC+00:00)

Cosmos 1461 - Pass Details

Date: 03 March 2021
Orbit: 504 x 660 km, 65.0° (Epoch: 12 April)

Event Time Altitude Azimuth Distance (km) Brightness Sun altitude
Rises 19:07:48 0° 230° (SW) 2,975 7.3 -12.2°
Reaches altitude 10° 19:10:07 10° 233° (SW) 2,073 6.5 -12.5°
Maximum altitude 19:14:49 66° 316° (NW) 724 3.6 -13.2°
Drops below altitude 10° 19:19:32 10° 39° (NE) 2,071 5.4 -13.9°
Enters shadow 19:20:38 - 41° (NE) 2,495 5.8 -14.1°
